Date String (YYYY-MM-DD hh:mm:ss) UTC,Instrument flags,absolute air pressure of the measurement (hPa),sample flow rate (lpm),inlet stack bypass flow (lpm),air temperature of the measurement (°C),ambient temperature measured by the external sensor (°C),aerosol sample conditioner tube jacket temperature (°C),OPC LED temperature (°C),internal box temperature (°C),relative humidity of the measurement (%),span deviation,mass concentration of particles derived from Lorenz-Mie calculation of OPC scattering (μg/m³),mass concentration of particles derived from Lorenz-Mie calculation of OPC scattering (μg/m³),mass concentration of particles derived from Lorenz-Mie calculation of OPC scattering (μg/m³)
DateTimeUTC,F1_M11,P_M11,Q1_M11,Q2_M11,T1_M11,T2_M11,T3_M11,T4_M11,T5_M11,U1_M11,ZSPAN_M11,X2_M11,X0_M11,X1_M11
2024-02-04 20:00:00,SystemResetWarning,0828.6,5.00,000.00,022.0,021.4,000.0,030.2,023.7,18.9,0001.3,0006.94,0009.78,0006.81
2024-02-04 20:01:00,SystemResetWarning,0828.6,5.00,000.00,021.9,021.4,000.0,030.2,023.7,19.0,0001.0,0006.89,0009.72,0006.77
2024-02-04 20:02:00,SystemResetWarning,0828.6,4.99,000.00,022.0,021.4,000.0,030.2,023.7,19.0,0000.9,0006.84,0009.66,0006.72
2024-02-04 20:03:00,SystemResetWarning,0828.6,4.99,000.00,022.0,021.4,000.0,030.2,023.7,18.9,0001.2,0006.83,0009.66,0006.70
2024-02-04 20:04:00,SystemResetWarning,0828.6,5.00,000.00,022.0,021.4,000.0,030.2,023.7,19.0,0001.2,0006.82,0009.74,0006.69
2024-02-04 20:05:00,SystemResetWarning,0828.6,5.00,000.00,022.0,021.4,000.0,030.2,023.7,19.2,0001.1,0006.81,0009.74,0006.68
2024-02-04 20:06:00,SystemResetWarning,0828.6,5.00,000.00,022.0,021.4,000.0,030.2,023.8,19.1,0000.3,0006.81,0009.12,0006.68
2024-02-04 20:07:00,SystemResetWarning,0828.6,5.00,000.00,022.0,021.4,000.0,030.2,023.8,19.0,0000.1,0006.82,0008.85,0006.70
2024-02-04 20:08:00,SystemResetWarning,0828.6,4.99,000.00,022.0,021.4,000.0,030.3,023.8,19.0,0000.2,0006.80,0008.81,0006.69
2024-02-04 20:09:00,SystemResetWarning,0828.6,5.00,000.00,022.0,021.4,000.0,030.3,023.8,19.1,0000.3,0006.79,0008.79,0006.67
2024-02-04 20:10:00,SystemResetWarning,0828.6,5.01,000.00,022.0,021.4,000.0,030.3,023.8,19.0,-000.0,0006.78,0008.76,0006.67
2024-02-04 20:11:00,SystemResetWarning,0828.6,5.00,000.00,022.0,021.4,000.0,030.3,023.8,18.9,-000.2,0006.79,0008.77,0006.69
2024-02-04 20:12:00,SystemResetWarning,0828.6,5.00,000.00,022.0,021.4,000.0,030.3,023.8,19.0,0000.3,0006.79,0008.80,0006.68
2024-02-04 20:13:00,SystemResetWarning,0828.6,5.00,000.00,022.0,021.4,000.0,030.3,023.8,19.1,0000.2,0006.77,0008.80,0006.66
2024-02-04 20:14:00,SystemResetWarning,0828.6,5.00,000.00,022.0,021.4,000.0,030.3,023.8,18.9,0000.4,0006.74,0008.76,0006.63
2024-02-04 20:15:00,SystemResetWarning,0828.6,5.00,000.00,022.0,021.4,000.0,030.3,023.8,19.0,0001.0,0006.72,0008.82,0006.63
2024-02-04 20:16:00,SystemResetWarning,0828.6,5.00,000.00,022.0,021.4,000.0,030.3,023.8,19.1,0001.1,0006.73,0009.29,0006.62
2024-02-04 20:17:00,SystemResetWarning,0828.6,5.00,000.00,022.0,021.4,000.0,030.3,023.8,19.3,0001.2,0006.73,0009.34,0006.60
2024-02-04 20:18:00,SystemResetWarning,0828.6,5.00,000.00,022.0,021.4,000.0,030.3,023.8,19.4,0001.4,0006.72,0009.37,0006.58
2024-02-04 20:19:00,SystemResetWarning,0828.6,5.00,000.00,022.0,021.4,000.0,030.3,023.8,19.7,0001.5,0006.73,0009.41,0006.58
2024-02-04 20:20:00,SystemResetWarning,0828.6,5.00,000.00,022.0,021.4,000.0,030.3,023.8,19.6,0001.6,0006.75,0009.44,0006.60
2024-02-04 20:21:00,SystemResetWarning,0828.6,5.00,000.00,022.0,021.4,000.0,030.3,023.8,19.4,0001.9,0006.77,0009.49,0006.60
2024-02-04 20:22:00,SystemResetWarning,0828.6,5.01,000.00,022.0,021.4,000.0,030.3,023.8,19.5,0002.2,0006.76,0009.47,0006.59
2024-02-04 20:23:00,SystemResetWarning,0828.7,5.00,000.00,022.0,021.5,000.0,030.3,023.8,19.3,0001.7,0006.75,0009.43,0006.59
2024-02-04 20:24:00,SystemResetWarning,0828.6,4.99,000.00,022.0,021.5,000.0,030.3,023.8,19.3,0001.7,0006.77,0009.49,0006.60
2024-02-04 20:25:00,SystemResetWarning,0828.6,4.99,000.00,022.0,021.5,000.0,030.3,023.8,19.3,0001.5,0006.78,0009.50,0006.62
2024-02-04 20:26:00,SystemResetWarning,0828.6,4.99,000.00,022.0,021.5,000.0,030.3,023.8,19.3,0001.3,0006.78,0009.40,0006.62
2024-02-04 20:27:00,SystemResetWarning,0828.6,5.01,000.00,022.0,021.5,000.0,030.3,023.8,19.4,0001.5,0006.76,0008.89,0006.62
2024-02-04 20:28:00,SystemResetWarning,0828.6,5.01,000.00,022.0,021.5,000.0,030.3,023.8,19.6,0001.7,0006.74,0008.82,0006.62
2024-02-04 20:29:00,SystemResetWarning,0828.6,5.00,000.00,022.1,021.5,000.0,030.3,023.9,19.6,0001.9,0006.73,0008.79,0006.62
2024-02-04 20:30:00,SystemResetWarning,0828.6,5.00,000.00,022.1,021.6,000.0,030.3,023.9,19.5,0002.0,0006.72,0008.81,0006.62
2024-02-04 20:31:00,SystemResetWarning,0828.6,5.00,000.00,022.1,021.6,000.0,030.4,023.9,19.4,0001.8,0006.71,0008.77,0006.63
2024-02-04 20:32:00,SystemResetWarning,0828.6,5.00,000.00,022.1,021.6,000.0,030.4,023.9,19.3,0001.4,0006.71,0008.76,0006.62
2024-02-04 20:33:00,SystemResetWarning,0828.6,5.01,000.00,022.1,021.6,000.0,030.4,023.9,19.3,0000.9,0006.69,0008.73,0006.61
2024-02-04 20:34:00,SystemResetWarning,0828.6,5.01,000.00,022.1,021.6,000.0,030.4,023.9,19.2,0001.1,0006.70,0008.76,0006.62
2024-02-04 20:35:00,SystemResetWarning,0828.6,5.00,000.00,022.1,021.6,000.0,030.4,023.9,19.3,0001.0,0006.70,0008.73,0006.60
2024-02-04 20:36:00,SystemResetWarning,0828.6,4.99,000.00,022.1,021.6,000.0,030.4,023.9,19.2,0000.9,0006.67,0008.96,0006.58
2024-02-04 20:37:00,SystemResetWarning,0828.6,4.99,000.00,022.1,021.5,000.0,030.4,023.9,19.2,0000.8,0006.67,0009.46,0006.57
2024-02-04 20:38:00,SystemResetWarning,0828.6,5.00,000.00,022.1,021.5,000.0,030.4,023.9,19.2,0000.7,0006.67,0009.40,0006.57
2024-02-04 20:39:00,SystemResetWarning,0828.6,5.01,000.00,022.1,021.5,000.0,030.4,023.9,19.4,0000.7,0006.66,0009.39,0006.56
2024-02-04 20:40:00,SystemResetWarning,0828.6,5.00,000.00,022.1,021.6,000.0,030.4,023.9,19.2,0000.5,0006.66,0009.38,0006.55
2024-02-04 20:41:00,SystemResetWarning,0828.7,4.99,000.00,022.1,021.6,000.0,030.4,023.9,19.1,0000.4,0006.64,0009.32,0006.54
2024-02-04 20:42:00,SystemResetWarning,0828.7,4.99,000.00,022.1,021.6,000.0,030.4,023.9,19.0,0000.4,0006.64,0009.33,0006.53
2024-02-04 20:43:00,SystemResetWarning,0828.7,5.00,000.00,022.1,021.6,000.0,030.4,023.9,19.1,0000.7,0006.63,0009.63,0006.53
2024-02-04 20:44:00,SystemResetWarning,0828.7,5.01,000.00,022.1,021.6,000.0,030.4,023.9,19.1,0000.5,0006.63,0009.87,0006.53
2024-02-04 20:45:00,SystemResetWarning,0828.7,5.01,000.00,022.1,021.6,000.0,030.4,023.9,19.1,0000.1,0006.65,0009.90,0006.55
2024-02-04 20:46:00,SystemResetWarning,0828.8,5.01,000.00,022.1,021.6,000.0,030.4,023.9,19.1,0000.3,0006.70,0009.94,0006.60
2024-02-04 20:47:00,SystemResetWarning,0828.8,5.00,000.00,022.2,021.6,000.0,030.4,023.9,19.2,0000.5,0006.73,0009.74,0006.63
2024-02-04 20:48:00,SystemResetWarning,0828.7,4.99,000.00,022.2,021.7,000.0,030.4,024.0,19.2,0000.6,0006.75,0009.24,0006.65
2024-02-04 20:49:00,SystemResetWarning,0828.7,5.00,000.00,022.2,021.7,000.0,030.5,024.0,19.2,0000.5,0006.76,0009.26,0006.65
2024-02-04 20:50:00,SystemResetWarning,0828.7,5.00,000.00,022.2,021.7,000.0,030.5,024.0,19.2,0000.7,0006.79,0009.28,0006.68
2024-02-04 20:51:00,SystemResetWarning,0828.7,5.00,000.00,022.2,021.7,000.0,030.5,024.0,19.1,0001.0,0006.81,0009.30,0006.70
2024-02-04 20:52:00,SystemResetWarning,0828.8,5.01,000.00,022.2,021.7,000.0,030.5,024.0,18.9,0001.3,0006.83,0009.35,0006.71
2024-02-04 20:53:00,SystemResetWarning,0828.7,5.00,000.00,022.2,021.7,000.0,030.5,024.0,18.9,0001.4,0006.82,0009.67,0006.71
2024-02-04 20:54:00,SystemResetWarning,0828.8,5.00,000.00,022.2,021.7,000.0,030.5,024.0,18.8,0001.3,0006.81,0009.55,0006.71
2024-02-04 20:55:00,SystemResetWarning,0828.7,5.00,000.00,022.2,021.7,000.0,030.5,024.0,18.8,0001.4,0006.83,0009.29,0006.74
2024-02-04 20:56:00,SystemResetWarning,0828.7,5.00,000.00,022.2,021.7,000.0,030.5,024.0,18.8,0001.3,0006.84,0009.28,0006.75
2024-02-04 20:57:00,SystemResetWarning,0828.7,5.00,000.00,022.2,021.7,000.0,030.5,024.0,18.8,0001.5,0006.82,0009.25,0006.74
2024-02-04 20:58:00,SystemResetWarning,0828.8,5.00,000.00,022.2,021.7,000.0,030.5,024.0,18.9,0001.1,0006.83,0009.27,0006.75
2024-02-04 20:59:00,SystemResetWarning,0828.8,5.00,000.00,022.2,021.7,000.0,030.5,024.0,18.8,0001.0,0006.84,0009.29,0006.76
